Abbotsford, British Columbia

12:43 PM PST on December 16, 2017 (GMT -0800)
Abbotsford

Weather History for CYXX - January, 2013

Change the Weather History Date:

Saturday, January 19, 2013

  Actual Average Record
Temperature  
Mean Temperature 34 °F -  
Max Temperature 42 °F 45 °F 64 °F (2005)
Min Temperature 26 °F 32 °F 15 °F (2012)
Degree Days  
Heating Degree Days 31    
Moisture  
Dew Point 31 °F    
Average Humidity 98    
Maximum Humidity 100    
Minimum Humidity 76    
Precipitation  
Precipitation 0.00 in 0.23 in - ()
Sea Level Pressure  
Sea Level Pressure 30.39 in    
Wind  
Wind Speed 2 mph ()    
Max Wind Speed 6 mph    
Max Gust Speed -    
Visibility 1.2 miles    
Events Fog    
Averages and records for this station are not official NWS values.
T = Trace of Precipitation, MM = Missing Value Source: Averaged Metar Reports

Daily Weather History Graph

Daily Weather History Graph

Search for Another Location

Airport or City:

Trip Planner

Search our weather history database for the weather conditions in past years. The results will help you decide how hot, cold, wet, or windy it might be!

Date:

Astronomy

Jan. 19, 2013 Rise Set
Actual Time 7:54 AM PST 4:46 PM PST
Civil Twilight 7:19 AM PST 5:22 PM PST
Nautical Twilight 6:40 AM PST 6:01 PM PST
Astronomical Twilight 6:02 AM PST 6:38 PM PST
Moon 11:21 AM PST (1/19) 1:26 AM PST (1/19)
Length of Visible Light 10h 02m
Length of Day
8h 51m
First Quarter, 58% of the Moon is Illuminated
Jan 19
First Quarter
Jan 26
Full
Feb 3
Last Quarter
Feb 9
New
Feb 17
First Quarter

Hourly Weather History & Observations

Time (PST) Temp. Windchill Dew Point Humidity Pressure Visibility Wind Dir Wind Speed Gust Speed Precip Events Conditions
12:00 AM 30.2 °F 25.4 °F 30.2 °F 100% 30.37 in 0.2 mi NNE 4.6 mph - N/A Fog Light Freezing Fog
1:00 AM 30.2 °F 26.7 °F 30.2 °F 100% 30.38 in 0.2 mi NE 3.5 mph - N/A Fog Light Freezing Fog
2:00 AM 30.2 °F 25.4 °F 30.2 °F 100% 30.38 in 0.2 mi NE 4.6 mph - N/A Fog Light Freezing Fog
3:00 AM 30.2 °F - 30.2 °F 100% 30.39 in 0.2 mi Calm Calm - N/A Fog Light Freezing Fog
4:00 AM 30 °F - 30 °F 100% 30.39 in 0 mi NE 3.5 mph - - Fog Heavy Fog
4:00 AM 30.2 °F 26.7 °F 30.2 °F 100% 30.39 in 0.2 mi NNE 3.5 mph - N/A Fog Light Freezing Fog
5:00 AM 30.2 °F 24.3 °F 30.2 °F 100% 30.38 in 0.2 mi NNE 5.8 mph - N/A Fog Light Freezing Fog
6:00 AM 30.2 °F 25.4 °F 30.2 °F 100% 30.38 in 0.2 mi NW 4.6 mph - N/A Fog Light Freezing Fog
7:00 AM 30.2 °F 24.3 °F 30.2 °F 100% 30.38 in 0.2 mi NNE 5.8 mph - N/A Fog Light Freezing Fog
8:00 AM 30.2 °F 26.7 °F 30.2 °F 100% 30.39 in 0.4 mi North 3.5 mph - N/A Fog Light Freezing Fog
8:43 AM 30.2 °F 26.7 °F 30.2 °F 100% 30.40 in 0.5 mi North 3.5 mph - N/A Fog Light Freezing Fog
9:00 AM 30.2 °F 25.4 °F 30.2 °F 100% 30.40 in 0.5 mi NNE 4.6 mph - N/A Fog Light Freezing Fog
10:00 AM 31 °F - 31 °F 100% 30.41 in 1 mi NNE 2.3 mph - -   Mist
10:00 AM 32.0 °F - 32.0 °F 100% 30.41 in 0.6 mi Calm Calm - N/A   Clear
10:18 AM 32.0 °F - 32.0 °F 100% 30.41 in 0.8 mi Calm Calm - N/A   Clear
10:50 AM 32.0 °F - 32.0 °F 100% 30.41 in 1.5 mi Variable 2.3 mph - N/A Fog Mostly Cloudy
11:00 AM 32.0 °F - 32.0 °F 100% 30.41 in 2.0 mi Calm Calm - N/A Fog Mostly Cloudy
11:29 AM 33.8 °F - 33.8 °F 100% 30.40 in 3.0 mi Calm Calm - N/A Fog Mostly Cloudy
12:00 PM 35.6 °F - 35.6 °F 100% 30.39 in 15.0 mi Calm Calm - N/A Fog Mostly Cloudy
1:00 PM 37.4 °F 34.9 °F 35.6 °F 93% 30.38 in 30.0 mi ESE 3.5 mph - N/A   Mostly Cloudy
2:00 PM 42.8 °F - 35.6 °F 76% 30.37 in 30.0 mi Variable 2.3 mph - N/A   Mostly Cloudy
3:00 PM 42.8 °F - 35.6 °F 76% 30.37 in 30.0 mi Calm Calm - N/A   Mostly Cloudy
3:47 PM 35.6 °F 32.8 °F 33.8 °F 93% 30.37 in 30.0 mi SSE 3.5 mph - N/A Fog Mostly Cloudy
4:00 PM 35 °F - 34 °F 94% 30.37 in 0 mi SSE 3.5 mph - - Fog Partial Fog
4:00 PM 33.8 °F 29.6 °F 33.8 °F 100% 30.37 in 0.5 mi SSE 4.6 mph - N/A Fog Fog
4:17 PM 33.8 °F - 33.8 °F 100% 30.37 in 0.4 mi Calm Calm - N/A Fog Fog
5:00 PM 32.0 °F - 32.0 °F 100% 30.37 in 0.4 mi Calm Calm - N/A Fog Fog
5:39 PM 32.0 °F - 32.0 °F 100% 30.38 in 0.2 mi Calm Calm - N/A Fog Fog
6:00 PM 32.0 °F - 32.0 °F 100% 30.37 in 0.2 mi Calm Calm - N/A Fog Light Freezing Fog
6:41 PM 32.0 °F - 30.2 °F 93% 30.38 in 0.6 mi Calm Calm - N/A   Mist
6:56 PM 30.2 °F - 30.2 °F 100% 30.38 in 0.8 mi Calm Calm - N/A   Mist
7:00 PM 30.2 °F - 30.2 °F 100% 30.38 in 0.8 mi Calm Calm - N/A   Mist
8:00 PM 30.2 °F - 30.2 °F 100% 30.39 in 0.8 mi Calm Calm - N/A   Clear
8:43 PM 30.2 °F - 30.2 °F 100% 30.38 in 0.5 mi Calm Calm - N/A Fog Light Freezing Fog
9:00 PM 30.2 °F - 30.2 °F 100% 30.39 in 0.4 mi Calm Calm - N/A Fog Light Freezing Fog
9:07 PM 30.2 °F 26.7 °F 30.2 °F 100% 30.40 in 0.6 mi Variable 3.5 mph - N/A   Mist
9:41 PM 28.4 °F - 28.4 °F 100% 30.40 in 0.5 mi Calm Calm - N/A Fog Light Freezing Fog
10:00 PM 29 °F - 29 °F 100% 30.40 in 1 mi Calm Calm - -   Mist
10:00 PM 28.4 °F - 28.4 °F 100% 30.40 in 1.0 mi Calm Calm - N/A   Clear
10:13 PM 26.6 °F - 26.6 °F 100% 30.40 in 0.6 mi Calm Calm - N/A   Clear
11:00 PM 26.6 °F - 26.6 °F 100% 30.40 in 0.8 mi Calm Calm - N/A   Mostly Cloudy
11:29 PM 28.4 °F - 28.4 °F 100% 30.41 in 2.0 mi NNE 2.3 mph - N/A   Mostly Cloudy
11:53 PM 28.4 °F 24.6 °F 28.4 °F 100% 30.40 in 8.0 mi NNE 3.5 mph - N/A   Scattered Clouds